Regional Weather Roundup
Issued by NWS Upton, NY

Current Version | Previous Version | Text Only | Print | Product List | Glossary On
Versions: 1 2 3 4 5 6 7 8 9 10 11 12 13 14 15 16 17 18 19 20 21 22 23 24 25 26 27 28 29 30 31 32 33 34 35 36 37 38 39 40 41 42 43 44 45 46 47 48 49 50
000
ASUS41 KOKX 020405
RWROKX

REGIONAL WEATHER ROUNDUP
NATIONAL WEATHER SERVICE NEW YORK NY
1200 AM EDT THU OCT 02 2014

NOTE: "FAIR" INDICATES FEW OR NO CLOUDS BELOW 12,000 FEET WITH NO
SIGNIFICANT WEATHER AND/OR OBSTRUCTIONS TO VISIBILITY.

NYZ071-072-176-178-NJZ106-104-020500-
NEW YORK CITY METRO AREA


CITY           SKY/WX    TMP DP  RH WIND       PRES   REMARKS
CENTRAL PARK   CLOUDY    61  56  83 NE5       30.11R
LAGUARDIA APRT CLOUDY    61  57  87 NE9       30.08S
KENNEDY INTL   CLOUDY    62  56  80 NE12      30.08S
NEWARK/LIBERTY CLOUDY    63  56  78 NE10      30.08S
BRNX BOT. GARD   N/A     59  55  88 N5        30.09F
TETERBORO      LGT RAIN  62  55  77 NE7       30.08R
$$

NYZ177-179-078>081-020500-
LONG ISLAND NEW YORK

CITY           SKY/WX    TMP DP  RH WIND       PRES   REMARKS
FARMINGDALE    CLOUDY    60  57  89 N8        30.07S
ISLIP          CLOUDY    59  57  93 N8        30.05S
SHIRLEY        CLOUDY    59  57  93 N7        30.07S FOG
WESTHAMPTON    CLOUDY    59  57  93 N9        30.07S
MONTAUK POINT    N/A     60  58  92 N13G21    30.06S
$$

NYZ052-065-067-020500-
HUDSON VALLEY

CITY           SKY/WX    TMP DP  RH WIND       PRES   REMARKS
WHITE PLAINS   CLOUDY    59  55  88 NE3       30.08S
NEWBURGH       NOT AVBL
MONTGOMERY     CLOUDY    60  57  89 NE7       30.10S
POUGHKEEPSIE   CLOUDY    60  58  92 CALM      30.09S
ALBANY         CLOUDY    60  58  92 N5        30.13S
$$

NJZ001-105-106-008-010-013-015-019>022-104-020500-
NEW JERSEY

CITY           SKY/WX    TMP DP  RH WIND       PRES   REMARKS
NEWARK/LIBERTY CLOUDY    63  56  78 NE10      30.08S
TETERBORO      LGT RAIN  62  55  77 NE7       30.08R
CALDWELL       CLOUDY    62  54  74 NE8       30.09S
MORRISTOWN     CLOUDY    63  57  82 NE3       30.08F
SOMERVILLE     CLOUDY    64  57  78 VRB5      30.06F
LINDEN         CLOUDY    65  61  85 NE6       30.10R
SUSSEX         CLOUDY    63  57  81 NE9       30.09F
ANDOVER          N/A     60  57  89 VRB3      30.09F
TRENTON        CLOUDY    62  57  83 NE7       30.07S
MILLVILLE      CLEAR     59  57  93 N3        30.07R
ATLANTIC CITY  CLOUDY    62  59  90 N6        30.06S
WRIGHTSTOWN    MOCLDY    58  58  99 NW1       30.05S
TOMS RIVER     MOCLDY    59  57  94 N3        30.07S
BELMAR         CLOUDY    61  55  82 N5        30.07S
$$

PAZ047>061-062-071-020500-
EASTERN PENNSYLVANIA

CITY           SKY/WX    TMP DP  RH WIND       PRES   REMARKS
PHILADELPHIA   MOCLDY    65  58  78 E5        30.07S
ALLENTOWN      CLOUDY    61  56  83 NE6       30.09S
SCRANTON       MOCLDY    59  54  83 E3        30.10R
$$

CTZ002-004>006-009-010-012-RIZ004-006-007-MAZ004-011-015-020500-
SOUTHERN NEW ENGLAND
 IN CT

CITY           SKY/WX    TMP DP  RH WIND       PRES   REMARKS
BRADLEY INTL   LGT RAIN  58  55  90 N8        30.10S
HARTFORD       LGT RAIN  58  55  90 N8        30.09F
DANBURY        CLOUDY    58  55  90 NE6       30.11S
WTRBRY/OXFORD  CLOUDY    57  52  82 N10       30.11R
BRIDGEPORT     CLOUDY    59  56  89 NE8       30.08S
MERIDEN        LGT RAIN  58  55  90 N9        30.09S
NEW HAVEN      CLOUDY    61  56  83 N12       30.07S
CHESTER        CLOUDY    57  55  94 N8        30.08F
GROTON         CLOUDY    57  56  96 N12       30.05F
WILLIMANTIC    LGT RAIN  58  55  90 N7        30.09F

 IN RI

CITY           SKY/WX    TMP DP  RH WIND       PRES   REMARKS
PROVIDENCE     CLOUDY    58  56  93 N12       30.08S
BLOCK ISLAND   CLOUDY    59  55  88 N15G22    30.04S
WESTERLY       LGT RAIN  58  56  93 N9        30.06S

 IN MA

CITY           SKY/WX    TMP DP  RH WIND       PRES   REMARKS
BOSTON         RAIN      56  56 100 NE18      30.11R FOG
WORCESTER      LGT RAIN  54  53  97 NE8G17    30.12S
WESTFIELD      RAIN      58  55  90 N8        30.12S FOG
PROVINCETOWN   CLOUDY    61  57  88 NE18      30.06R
NANTUCKET      CLOUDY    61  58  90 NE22G29   29.97F
$$

ANZ330-335-338-340-345-350-353-355-020500-
COASTAL MARINE OBSERVATIONS


STATION/POSITION TIME  SKY/WX   TEMP    WIND        PRES    VSBY  WAVE
                                AIR SEA DIR/SP/G                  HT/PER
                 (UTC)          (F)     (DEG/KT/KT) (MB)    (MI)  (FT/S)
NY HARB ENTRANCE NOT AVBL
4S FIRE IS       0400               67                N/A           4/ 8
20S FIRE ISLAND  0400            62 67   20/ 19/ 23 1016.9          6/ 7
23SW MTP         0400                                 N/A           6/ 6
HUDSON CANYON    0400            63 70   10/ 23/ 27 1014.9          7/ 8
EXECUTION ROCKS  0400            62 68   40/ 14/ 19   N/A
WESTERN LI SOUND 0400            62      50/ 12/ 16   N/A           2/ 4
CENTRAL LI SOUND 0300            61 68   20/ 17/ 21   N/A           2/ 4
EASTERN LI SOUND 0300            61 65   20/ 14/ 19   N/A
ROBBINS REEF     0400            62      60/ 13/ 15 1017.4
$$


>>>>>>>>>>>>>>>>>>>>>>>>>>>> KEY <<<<<<<<<<<<<<<<<<<<<<<<<<<
>                                                          <
>     SKY/WX - SKY CONDITION/PRESENT WEATHER               <
>     TMP    - TEMPERATURE IN FAHRENHEIT                   <
>     DP     - DEWPOINT IN FAHRENHEIT                      <
>     RH     - RELATIVE HUMIDITY IN PERCENT                <
>     WIND   - DIRECTION AND SPEED IN MPH                  <
>     PRES   - MEAN SEA LEVEL PRESSURE IN INCHES OF HG     <
>     WCI    - WIND CHILL INDEX                            <
>     VSB    - VISIBILITY IN MILES                         <
>     HX     - HEAT INDEX                                  <
>     TC     - TEMPERATURE IN CELSIUS                      <
>     VRB    - VARIABLE WIND DIRECTION                     <
>                                                          <
>>>>>>>>>>>>>>>>>>>>>>>>>>>> KEY <<<<<<<<<<<<<<<<<<<<<<<<<<<





USA.gov is the U.S. government's official web portal to all federal, state and local government web resources and services.